Vorticity
9 13 16 15 14 12 7 7 7 5 8 6 3 6 7 10 10 3 6 7 6 6 -1 11 18 6 6 6 4 6 2 3 4 3 5 3 4 4 1 2 3 5 8 7 14 15 12 11 8 12 14 9 7 7 7 6 6 5 4 5 9 10 9 7 6 7 7 6 5 5 5 5 5 6 6 6 7 8 9 10 9 7 5 4 4 4
6 8 18 21 18 16 11 9 10 7 9 8 4 4 3 10 13 3 3 6 5 6 1 11 21 6 2 5 1 4 2 1 2 0 1 0 1 3 1 2 4 5 7 6 11 14 12 11 9 9 13 11 8 7 7 6 7 6 5 6 8 8 8 9 7 6 6 6 5 5 5 6 6 6 6 6 8 10 10 11 9 6 5 4 4 4
6 6 17 22 18 15 15 13 10 8 11 11 7 7 7 12 16 3 -0 6 2 2 1 8 19 9 1 4 1 2 1 -1 0 -1 -0 1 -0 1 1 3 5 4 6 6 9 14 15 12 9 8 10 11 9 7 7 7 7 6 6 6 7 6 6 8 9 7 8 7 6 6 6 7 7 7 6 6 8 9 10 10 8 6 5 4 4 4
6 5 12 17 16 15 13 10 10 8 8 11 10 8 6 6 14 9 1 5 2 -0 -1 3 18 16 2 3 2 -1 -0 -0 2 2 1 3 1 -1 0 3 3 3 5 6 7 11 16 16 12 9 9 10 8 6 6 7 7 7 6 6 7 7 5 7 9 9 9 8 8 8 7 7 8 8 6 6 8 9 9 8 6 6 5 4 4 3
7 6 8 9 11 12 9 6 8 10 8 10 10 8 6 1 7 12 5 6 6 1 -2 -3 14 24 8 -0 1 -3 0 1 0 2 1 2 3 -1 -1 4 5 4 3 5 6 8 15 18 15 11 8 8 7 6 6 6 8 8 7 8 9 8 7 7 9 9 9 9 9 9 8 8 8 8 7 7 8 9 8 6 6 5 4 3 3 4
8 11 6 1 5 8 8 8 8 9 8 9 10 7 7 2 2 7 7 12 12 3 -2 -5 8 28 18 -1 -2 -0 3 3 0 2 3 2 4 1 1 4 6 6 3 4 6 6 13 18 16 15 10 7 6 6 6 7 8 9 8 10 10 8 8 8 8 9 9 9 9 9 8 7 7 8 8 8 8 8 7 5 5 4 3 2 3 3
6 11 9 1 2 4 7 11 11 10 9 9 10 7 8 9 5 4 3 8 15 10 0 -5 1 19 23 6 -0 7 8 3 0 2 4 3 4 6 8 6 4 5 3 3 6 6 10 15 15 16 13 8 6 5 6 8 9 9 8 8 8 7 8 8 8 8 8 8 7 8 8 7 6 6 8 9 9 8 6 5 5 3 2 3 3 4
8 8 10 6 3 1 2 10 13 14 13 11 11 9 8 10 8 7 4 1 10 14 4 0 0 7 23 17 2 6 8 1 0 1 3 6 7 7 8 8 6 5 3 3 5 6 8 13 14 14 13 9 5 5 7 7 8 8 7 6 7 7 7 7 7 6 6 7 6 7 8 7 7 7 7 7 8 8 6 4 3 2 2 2 3 4
11 10 9 7 8 6 3 8 11 11 15 15 13 11 6 6 9 8 8 5 6 9 5 5 4 1 24 33 14 6 4 -1 0 1 5 8 5 3 3 6 7 7 6 4 5 6 6 9 14 14 12 9 5 5 7 8 9 10 8 7 7 7 7 6 6 5 4 6 6 6 7 8 9 8 7 6 6 7 6 4 3 1 2 3 4 4
6 10 10 6 5 7 6 7 7 7 12 12 14 18 8 3 10 5 6 11 2 -0 6 12 6 -8 8 33 25 10 4 1 1 2 7 8 2 2 3 3 5 6 8 5 3 6 6 7 12 15 13 10 8 7 8 9 10 10 9 8 7 6 7 6 6 5 4 5 5 5 7 8 8 8 8 8 6 7 7 6 5 2 1 3 4 5
3 4 8 9 6 5 5 3 4 5 5 6 14 23 11 2 7 2 3 7 -8 -7 11 18 9 -10 1 34 34 18 10 4 2 2 4 5 2 3 3 2 4 5 7 7 3 4 7 7 10 15 15 12 10 9 9 9 9 9 7 6 6 6 6 6 5 4 4 4 4 6 7 7 7 7 7 8 8 7 6 6 6 5 4 3 4 5
5 2 2 8 9 5 4 2 2 2 -1 2 12 17 12 6 5 3 5 1 -12 0 16 16 12 -1 5 30 29 23 27 12 -2 1 4 2 2 4 2 2 4 4 5 6 3 3 5 7 9 13 16 15 12 9 8 7 6 6 6 4 5 5 5 5 5 4 4 4 4 5 5 5 6 6 5 6 7 7 7 6 6 6 5 5 5 5
6 5 2 5 9 8 7 3 3 3 -0 2 7 7 9 10 8 7 8 -2 -9 8 17 15 22 9 -1 14 18 25 43 31 2 -1 6 4 3 4 2 2 4 4 5 5 5 4 5 7 8 11 13 14 13 11 9 9 8 7 7 7 7 7 7 7 6 6 5 5 5 6 6 7 7 7 5 5 6 6 7 6 6 5 5 5 5 5
8 9 4 1 4 8 9 5 3 5 3 5 6 3 6 10 9 8 8 3 0 8 7 7 21 13 -2 13 28 28 40 41 16 3 7 5 3 5 3 3 4 4 4 4 5 5 4 5 7 9 11 11 12 12 10 10 9 9 9 9 9 8 7 7 7 7 6 6 6 7 9 9 8 8 7 7 6 7 8 7 6 5 5 5 4 5
12 14 10 3 1 3 8 10 9 6 5 8 7 4 4 6 7 6 5 5 6 7 5 11 23 19 9 19 31 28 31 38 23 7 6 5 5 7 3 1 4 4 5 6 5 4 3 4 6 8 9 9 11 11 10 10 9 9 8 8 7 7 7 6 6 7 7 7 7 7 7 7 6 6 7 7 6 6 7 8 8 7 5 5 5 6
7 10 11 10 7 3 4 9 11 9 9 10 8 7 6 6 9 9 4 3 8 8 6 13 18 14 18 28 30 26 25 30 27 15 5 5 7 5 -0 1 5 4 3 5 5 5 4 3 5 7 6 5 8 9 9 9 8 8 8 8 7 7 7 7 7 7 6 6 6 5 5 5 5 4 5 6 5 5 6 6 8 9 7 5 5 6
5 6 9 10 10 8 5 4 6 8 10 11 11 10 8 8 8 7 4 2 4 5 3 10 13 7 10 17 17 19 20 20 25 20 6 2 6 4 0 2 4 3 3 4 7 7 6 4 5 7 5 4 6 6 6 7 8 8 8 8 8 8 8 7 6 7 6 5 4 4 4 4 4 3 3 4 5 5 5 5 5 7 7 7 6 5
2 6 8 6 8 9 6 6 5 4 5 7 9 9 9 10 7 3 6 5 5 9 11 12 12 7 10 13 13 17 20 18 21 19 10 6 6 3 3 3 3 3 4 6 8 8 6 5 6 8 7 6 6 5 4 4 7 8 7 8 8 8 8 7 6 6 5 5 4 3 4 4 4 4 3 3 4 4 4 4 4 5 5 6 6 5
3 4 6 5 6 8 5 6 7 3 2 3 3 6 10 11 8 4 4 6 6 7 7 9 11 12 16 19 15 14 17 19 20 16 12 11 7 2 3 5 4 2 3 5 6 7 9 9 10 10 8 7 8 7 6 5 5 5 5 6 6 6 7 8 7 6 5 5 5 4 4 4 4 4 4 4 4 3 4 4 4 4 4 5 5 5
7 6 6 4 6 9 6 5 7 3 1 2 1 2 5 7 8 7 4 3 4 3 3 6 9 13 17 15 12 13 14 13 13 11 11 13 11 6 6 8 4 1 5 6 2 4 9 12 12 11 10 8 7 6 6 7 5 2 2 4 4 4 6 6 6 6 6 6 6 6 5 5 5 6 6 5 4 4 4 4 4 4 3 4 4 5
7 7 7 6 5 6 7 6 7 6 3 3 3 1 1 4 4 5 6 4 5 8 9 8 9 19 27 20 12 14 12 8 9 10 10 13 14 10 9 8 4 4 8 6 1 3 7 9 10 10 8 7 6 5 7 7 3 2 3 2 2 4 4 4 6 7 7 7 7 7 7 7 7 7 7 6 6 6 5 5 5 4 3 3 3 4
6 6 6 6 6 5 7 7 6 8 6 4 3 2 3 5 2 1 3 2 1 2 5 10 11 14 19 16 11 14 15 12 11 10 9 13 15 13 11 9 7 8 9 4 2 6 6 4 5 8 9 8 7 6 8 7 3 2 3 1 2 4 3 4 7 8 9 9 8 8 9 8 8 7 7 8 8 9 8 8 7 6 5 4 4 3
6 7 5 4 5 6 8 7 6 7 8 6 5 4 5 5 3 3 4 1 -1 -3 -1 2 -2 2 22 25 14 13 19 17 12 9 8 9 12 13 12 10 8 9 9 5 5 8 4 -0 -0 3 8 11 10 9 9 8 6 5 4 4 4 4 4 5 6 8 11 11 9 9 9 8 8 9 9 9 11 11 12 13 12 11 10 8 7 5
9 8 7 4 3 5 6 6 7 7 6 7 6 5 4 3 1 2 3 4 2 -1 2 2 -4 7 24 18 2 8 22 23 14 9 9 7 8 8 8 6 5 8 10 7 7 8 5 2 1 -3 -4 1 7 11 10 7 5 7 8 8 7 5 5 5 5 7 9 10 8 7 7 8 8 8 9 9 11 13 15 16 17 16 15 13 11 9
9 8 8 6 4 5 4 3 6 6 4 6 8 7 6 3 2 1 1 2 1 1 5 2 2 9 4 -9 -2 12 18 20 17 12 9 9 8 5 3 4 5 8 11 7 6 7 3 1 1 -1 -5 -5 -0 7 9 6 5 8 11 11 10 8 7 6 6 7 8 9 7 5 5 7 7 6 7 9 12 14 15 17 19 20 20 18 16 14
6 8 9 5 3 5 5 3 4 5 5 6 7 8 8 5 3 2 1 0 -2 1 5 1 5 15 6 -3 7 12 9 15 19 16 13 12 13 11 8 6 4 7 10 8 7 8 4 -0 1 3 2 -0 -1 3 6 6 5 7 10 12 12 9 8 7 7 9 9 8 7 5 6 6 5 5 6 7 9 10 11 15 19 22 24 24 25 23
6 7 8 7 5 6 6 5 5 5 5 6 5 7 9 8 6 4 2 1 -0 1 3 1 4 8 5 4 8 6 7 12 14 16 16 12 12 15 14 12 9 8 7 5 6 7 4 1 4 7 6 3 3 3 2 2 3 6 9 11 13 10 5 5 7 10 11 10 8 7 6 6 5 2 3 6 8 9 11 14 15 17 19 23 27 30
7 5 6 8 7 5 6 6 6 5 4 4 5 5 6 8 9 8 3 1 4 4 1 3 5 0 -1 8 11 6 6 8 9 13 15 13 12 13 14 14 12 9 6 2 2 3 1 -1 5 12 10 4 1 0 1 1 2 6 8 10 14 13 6 4 8 12 12 11 11 9 7 7 6 2 3 7 8 9 12 15 15 14 13 13 13 16
9 8 6 6 6 6 5 4 6 7 4 4 5 4 4 7 8 9 8 5 5 5 3 4 5 2 1 6 7 5 6 8 7 8 10 14 16 14 13 14 12 10 8 6 3 1 -0 1 7 14 11 4 -2 -3 2 5 3 5 9 9 13 16 12 8 9 11 10 10 11 10 8 9 7 3 5 7 8 10 13 13 14 14 12 12 12 10
7 11 8 6 6 6 6 5 4 5 5 4 4 3 3 5 5 4 6 7 5 4 5 5 3 3 3 2 1 2 3 3 5 7 7 8 9 11 13 16 17 17 12 8 4 2 2 3 7 12 9 4 -0 -6 -5 1 3 5 7 7 11 15 15 12 10 10 9 10 12 11 10 9 6 4 6 9 9 10 8 7 9 9 8 8 10 10
3 8 9 7 6 5 6 6 4 4 6 5 4 5 4 3 3 3 2 3 4 3 2 3 3 2 1 1 3 5 4 3 4 6 6 6 7 8 9 10 16 22 21 16 11 8 7 5 7 12 9 4 2 -2 -6 -4 -1 2 3 2 6 12 16 14 11 8 8 9 11 12 12 10 6 5 8 9 8 7 6 5 6 6 4 4 3 2
5 5 7 7 7 6 5 6 6 5 6 6 5 6 5 3 2 2 1 2 3 2 1 3 3 2 2 4 5 7 11 10 7 5 7 8 8 6 7 6 7 11 17 20 20 19 19 14 10 11 9 5 5 4 1 -2 -2 3 9 10 8 9 15 17 14 10 9 9 11 15 16 11 5 7 11 10 5 4 4 3 3 3 3 3 0 -2
8 4 4 6 8 8 6 6 9 6 4 6 7 4 4 4 3 2 3 3 3 2 3 3 1 2 7 8 5 5 9 10 8 6 6 7 7 7 7 7 6 6 8 11 15 19 25 25 18 12 9 8 9 8 4 1 2 9 20 23 17 12 15 19 18 14 12 11 13 16 14 8 4 8 13 11 6 4 3 2 3 4 4 0 -3 -0
9 5 3 4 5 8 7 5 5 5 5 6 5 2 2 3 3 4 6 6 5 4 4 2 3 5 8 10 8 6 7 8 7 6 5 5 6 6 6 5 7 9 9 7 8 10 16 22 22 18 14 12 14 13 9 6 5 11 20 21 16 14 14 14 14 13 12 11 13 13 8 5 6 9 10 8 6 6 4 4 5 5 3 1 -2 -0
8 6 6 6 4 4 7 5 2 3 7 8 4 2 2 2 3 5 6 4 4 4 4 4 6 8 8 8 7 6 7 8 7 6 8 8 5 4 5 6 6 7 7 6 5 5 6 10 14 17 16 17 17 16 15 12 7 7 10 11 13 15 13 10 9 8 8 8 8 8 6 6 7 7 6 7 9 9 5 5 7 5 2 2 1 -1
8 7 6 5 5 4 4 4 4 4 4 4 5 4 2 2 5 5 3 3 3 3 5 5 5 6 6 6 6 7 8 9 7 6 7 11 10 6 3 3 4 5 5 4 3 4 4 4 7 11 12 15 18 17 15 12 8 6 6 8 13 16 13 11 9 7 8 9 10 10 9 8 8 7 6 5 8 10 9 8 6 3 1 1 1 -0
7 9 9 6 5 6 4 3 5 6 3 2 4 5 3 2 5 5 4 4 4 3 3 3 3 5 5 4 5 7 8 9 10 7 5 6 9 9 6 5 4 3 3 4 5 6 6 5 5 8 9 12 15 14 12 10 7 6 5 4 7 10 9 7 6 6 7 8 7 9 10 9 8 7 6 5 5 8 10 9 5 2 1 0 -0 1
7 6 8 9 7 5 5 5 4 4 3 3 3 4 4 3 3 3 4 5 5 3 3 4 4 5 6 6 6 6 8 10 11 9 8 6 6 6 7 7 6 4 4 5 6 7 8 8 7 6 7 11 12 10 10 11 10 10 7 2 1 4 4 3 4 5 4 3 4 6 6 5 5 5 4 4 4 6 8 7 4 2 -1 -2 1 5
10 9 6 7 9 8 5 5 5 4 3 4 5 4 4 3 4 3 2 4 5 3 4 6 6 6 6 6 5 3 4 7 8 10 11 10 8 7 8 7 7 7 5 4 5 6 7 7 7 6 6 9 10 9 9 10 12 13 9 3 1 2 1 2 4 4 1 1 4 4 3 5 7 7 7 6 4 4 5 4 2 1 -1 -0 3 4
7 11 9 5 6 8 7 5 4 3 4 6 6 4 3 4 5 2 -0 3 6 5 5 6 6 6 7 8 7 4 1 3 7 10 10 8 9 10 8 7 8 8 6 4 4 6 8 7 7 6 6 8 8 9 10 10 11 12 8 3 3 4 3 3 5 5 4 4 5 4 5 10 13 15 18 17 11 7 5 2 0 0 -1 0 3 3
5 7 10 9 7 7 7 7 5 4 5 7 5 4 5 3 1 1 3 5 4 4 5 5 5 5 5 6 8 6 2 1 5 9 6 6 10 11 7 7 8 8 8 7 5 6 9 11 10 6 6 9 9 9 9 10 13 12 7 4 5 5 5 4 4 4 4 4 5 6 8 10 11 12 14 15 13 12 10 8 8 9 4 1 2 5
11 6 5 6 8 8 6 4 5 5 6 6 5 6 5 2 1 3 6 7 5 5 6 4 4 5 5 5 7 7 4 2 5 9 7 5 9 11 8 7 7 6 6 7 8 7 7 9 12 10 7 8 10 11 9 10 13 12 8 7 6 3 4 7 7 6 6 5 6 8 9 12 11 5 2 3 7 11 12 11 12 18 24 21 10 4
14 10 10 5 4 8 8 5 5 6 7 6 5 5 3 3 6 6 2 3 6 8 8 5 3 3 3 4 6 7 6 4 4 9 9 6 7 9 9 8 6 5 6 5 5 7 7 8 10 10 9 9 10 11 11 10 12 12 10 9 6 2 3 7 7 7 6 3 4 6 8 11 11 5 -1 0 4 5 6 7 8 11 22 28 15 3
13 12 17 14 6 3 5 6 5 5 6 5 3 5 4 4 7 6 3 3 5 5 6 7 6 5 4 4 5 6 7 6 6 7 8 7 6 6 8 10 9 5 6 6 5 4 6 8 10 9 8 8 9 11 11 10 11 12 12 10 5 4 4 3 3 3 1 -1 0 3 4 6 7 5 2 3 5 4 1 5 10 9 10 14 12 9
21 16 15 16 14 6 2 5 7 4 5 5 3 5 7 5 5 5 5 6 5 4 5 6 5 5 5 4 5 5 5 7 7 7 7 7 6 4 5 9 12 10 7 5 5 5 6 7 11 12 10 8 7 8 9 9 9 11 12 9 6 5 4 2 2 4 3 2 2 3 4 6 6 5 3 2 5 5 3 3 9 11 8 7 8 8
32 25 16 16 19 13 3 3 4 2 2 4 3 4 6 5 5 5 5 5 6 7 7 7 6 6 5 5 6 6 6 7 8 8 7 7 6 6 5 5 8 12 12 9 6 6 7 8 9 11 12 10 8 7 7 7 7 9 10 10 9 7 5 4 3 3 4 4 5 4 3 5 6 5 2 2 5 8 7 4 2 4 5 5 7 8
37 32 25 23 21 14 8 5 5 4 3 2 4 5 5 5 5 5 5 5 5 5 7 7 7 6 6 5 6 7 7 6 7 8 8 8 7 6 6 5 5 7 10 12 11 9 8 9 9 9 11 11 9 7 6 6 6 7 8 9 9 9 9 8 7 6 5 6 7 7 5 4 4 4 3 5 8 10 7 3 1 2 5 6 6 7
36 33 30 30 25 19 15 8 2 3 3 1 2 4 4 5 5 4 5 5 4 4 6 7 7 7 8 7 5 7 8 7 7 8 7 7 8 7 6 6 5 6 7 8 10 10 9 9 9 8 9 11 11 10 8 7 7 7 7 7 7 7 9 10 10 9 8 7 7 7 6 4 3 3 4 5 5 5 5 5 5 6 7 7 5 2
35 35 32 34 32 27 23 15 8 7 6 4 6 7 4 5 5 3 4 4 4 4 4 5 5 3 4 7 6 6 8 7 5 6 7 7 7 7 8 7 5 5 8 8 8 7 7 7 8 9 10 12 14 14 12 9 8 7 7 7 6 6 7 8 8 7 7 7 6 5 4 5 3 4 6 5 2 3 6 8 9 8 8 8 5 1
30 33 32 35 35 32 29 22 17 13 8 6 9 7 5 5 4 3 4 3 4 4 4 8 13 7 2 5 7 5 7 9 7 5 5 7 8 8 7 9 8 6 6 7 7 7 6 6 6 8 10 12 14 17 18 15 12 10 9 8 8 8 9 9 8 8 6 5 5 4 3 3 3 2 3 2 3 5 7 8 8 7 6 5 4 3
30 32 33 37 39 39 38 33 29 24 16 14 16 12 8 6 4 4 5 4 5 4 -1 1 13 13 3 1 4 6 4 4 7 10 8 5 7 9 7 5 6 7 6 6 7 8 9 8 7 5 5 5 6 10 13 15 15 13 11 10 9 8 10 11 11 12 11 10 9 10 9 8 7 7 8 9 11 12 13 12 12 10 9 8 6 6
Height
5856 5856 5858 5860 5863 5865 5866 5868 5869 5871 5873 5875 5877 5879 5881 5882 5884 5884 5884 5887 5890 5891 5892 5893 5893 5893 5894 5895 5895 5895 5896 5897 5898 5899 5899 5899 5899 5899 5898 5898 5898 5898 5899 5900 5901 5901 5902 5903 5904 5906 5907 5909 5910 5912 5913 5915 5917 5918 5919 5920 5922 5923 5925 5926 5927 5929 5930 5931 5932 5933 5934 5935 5936 5937 5938 5939 5940 5940 5941 5941 5942 5942 5943 5943 5943 5944
5853 5855 5857 5859 5860 5862 5863 5865 5866 5868 5871 5873 5875 5877 5878 5879 5882 5882 5881 5885 5887 5888 5890 5891 5891 5892 5893 5893 5894 5894 5895 5896 5897 5898 5898 5898 5898 5898 5898 5897 5897 5897 5897 5899 5900 5901 5902 5903 5904 5905 5907 5908 5910 5911 5913 5914 5916 5917 5918 5920 5921 5922 5924 5925 5926 5928 5929 5931 5932 5933 5934 5935 5936 5937 5938 5939 5940 5940 5941 5941 5942 5942 5943 5943 5944 5944
5851 5854 5856 5856 5857 5858 5860 5862 5863 5865 5868 5870 5872 5873 5875 5878 5880 5879 5879 5883 5884 5885 5888 5888 5889 5890 5891 5891 5892 5893 5894 5894 5895 5896 5896 5896 5896 5897 5897 5896 5896 5896 5896 5897 5899 5900 5901 5902 5903 5905 5906 5908 5909 5910 5912 5913 5915 5916 5917 5919 5920 5922 5923 5924 5926 5927 5929 5930 5932 5933 5934 5935 5936 5937 5938 5939 5939 5940 5940 5941 5941 5942 5942 5943 5943 5944
5850 5853 5853 5853 5854 5855 5856 5858 5860 5861 5863 5866 5868 5870 5874 5876 5877 5877 5878 5879 5880 5882 5885 5886 5887 5889 5889 5890 5891 5891 5892 5893 5894 5894 5895 5895 5896 5896 5895 5895 5895 5894 5895 5896 5897 5899 5900 5901 5902 5904 5905 5907 5909 5910 5911 5913 5914 5916 5917 5918 5919 5920 5922 5923 5925 5926 5928 5930 5932 5933 5934 5935 5936 5937 5938 5938 5939 5940 5940 5941 5941 5941 5942 5943 5943 5943
5847 5848 5848 5849 5850 5851 5852 5854 5855 5857 5859 5862 5865 5867 5871 5872 5873 5875 5873 5873 5878 5880 5882 5884 5884 5886 5887 5888 5890 5889 5889 5890 5892 5892 5894 5894 5895 5895 5894 5895 5895 5894 5894 5894 5895 5897 5899 5901 5902 5903 5904 5906 5908 5909 5911 5912 5913 5914 5915 5917 5918 5919 5921 5922 5924 5926 5928 5929 5931 5932 5933 5934 5936 5936 5937 5938 5938 5939 5940 5941 5941 5942 5942 5942 5943 5943
5843 5844 5845 5845 5846 5847 5849 5850 5852 5855 5857 5860 5862 5865 5868 5868 5869 5871 5870 5872 5877 5877 5879 5880 5880 5882 5885 5887 5887 5886 5886 5888 5889 5890 5892 5893 5894 5894 5895 5895 5895 5895 5894 5893 5894 5896 5898 5900 5901 5902 5904 5905 5907 5908 5910 5911 5912 5913 5914 5915 5917 5918 5920 5922 5923 5925 5927 5928 5930 5931 5932 5933 5934 5935 5936 5938 5939 5940 5940 5941 5941 5941 5942 5942 5943 5943
5839 5840 5842 5842 5843 5845 5846 5847 5850 5852 5853 5856 5859 5862 5863 5863 5866 5868 5869 5872 5873 5874 5875 5874 5875 5879 5881 5882 5882 5882 5884 5885 5887 5889 5890 5892 5893 5894 5895 5895 5895 5894 5893 5893 5894 5895 5896 5898 5900 5902 5903 5904 5906 5907 5908 5910 5911 5912 5913 5914 5916 5917 5919 5921 5923 5925 5926 5927 5929 5929 5931 5932 5933 5935 5936 5937 5938 5939 5940 5940 5941 5941 5941 5942 5942 5942
5836 5838 5839 5840 5841 5842 5844 5846 5848 5848 5850 5853 5856 5858 5858 5860 5863 5866 5867 5868 5868 5871 5869 5868 5873 5875 5875 5878 5879 5879 5882 5882 5884 5887 5889 5890 5892 5893 5894 5894 5895 5895 5893 5892 5893 5894 5895 5897 5899 5900 5902 5903 5904 5906 5907 5909 5910 5911 5912 5913 5915 5917 5918 5920 5922 5923 5925 5926 5927 5928 5929 5931 5932 5934 5935 5936 5937 5938 5939 5940 5940 5940 5941 5941 5941 5942
5834 5834 5837 5838 5838 5840 5843 5845 5845 5846 5848 5851 5852 5854 5856 5858 5860 5862 5863 5864 5865 5866 5864 5866 5871 5869 5870 5876 5876 5876 5879 5880 5882 5886 5887 5889 5890 5891 5892 5893 5894 5894 5894 5893 5892 5893 5894 5896 5898 5899 5900 5902 5903 5905 5906 5908 5909 5910 5911 5913 5914 5916 5918 5919 5921 5922 5923 5924 5925 5927 5928 5929 5931 5932 5934 5935 5936 5937 5938 5939 5939 5939 5940 5940 5941 5941
5827 5829 5833 5832 5832 5836 5840 5840 5841 5843 5845 5846 5847 5850 5853 5854 5856 5858 5857 5860 5862 5859 5858 5863 5866 5864 5866 5871 5873 5872 5875 5877 5881 5884 5886 5887 5888 5889 5890 5891 5892 5893 5894 5894 5893 5892 5893 5894 5896 5898 5899 5901 5903 5904 5906 5907 5908 5910 5911 5912 5914 5915 5917 5918 5920 5921 5922 5923 5924 5925 5926 5927 5929 5930 5932 5933 5934 5935 5936 5937 5938 5938 5939 5940 5940 5941
5821 5825 5825 5825 5828 5833 5834 5834 5836 5839 5840 5841 5843 5846 5848 5848 5850 5852 5852 5856 5856 5852 5854 5860 5862 5861 5861 5866 5869 5869 5871 5876 5881 5883 5884 5885 5886 5887 5888 5889 5891 5892 5893 5894 5893 5892 5892 5893 5895 5897 5899 5901 5902 5904 5905 5906 5908 5909 5911 5912 5913 5914 5916 5917 5919 5920 5921 5922 5923 5924 5925 5926 5927 5929 5930 5931 5932 5933 5934 5935 5937 5937 5938 5939 5940 5940
5817 5820 5820 5821 5826 5828 5829 5830 5832 5834 5835 5836 5839 5842 5843 5844 5845 5847 5849 5852 5850 5849 5853 5857 5860 5860 5858 5863 5868 5868 5870 5876 5879 5880 5882 5883 5884 5885 5887 5887 5889 5890 5891 5892 5892 5892 5892 5893 5894 5896 5899 5901 5902 5903 5904 5906 5907 5909 5910 5912 5913 5914 5915 5917 5918 5919 5920 5922 5923 5923 5924 5925 5926 5927 5928 5929 5930 5931 5933 5934 5935 5936 5937 5938 5938 5939
5813 5816 5816 5819 5823 5824 5824 5826 5829 5830 5831 5833 5836 5837 5838 5840 5842 5844 5846 5848 5847 5849 5852 5855 5857 5857 5857 5861 5865 5866 5870 5873 5875 5878 5880 5881 5882 5883 5885 5886 5887 5889 5890 5891 5892 5892 5892 5893 5894 5895 5897 5900 5901 5902 5903 5905 5906 5908 5909 5910 5912 5913 5914 5916 5917 5918 5919 5920 5921 5922 5922 5923 5924 5925 5926 5927 5928 5930 5931 5932 5933 5934 5935 5936 5937 5938
5810 5812 5812 5815 5819 5820 5821 5823 5825 5826 5828 5830 5832 5834 5836 5838 5840 5841 5844 5845 5846 5849 5851 5852 5854 5855 5856 5858 5861 5864 5868 5870 5872 5876 5878 5879 5881 5882 5883 5884 5885 5887 5888 5890 5891 5891 5892 5892 5893 5894 5896 5898 5900 5901 5902 5904 5905 5907 5908 5909 5910 5912 5913 5914 5915 5917 5918 5919 5920 5920 5921 5922 5923 5924 5924 5925 5926 5927 5929 5930 5931 5932 5933 5934 5935 5936
5805 5807 5810 5814 5817 5818 5819 5821 5823 5825 5826 5828 5831 5833 5834 5835 5838 5840 5842 5844 5846 5847 5849 5850 5852 5853 5855 5856 5858 5861 5864 5866 5869 5873 5875 5877 5879 5880 5881 5882 5883 5885 5887 5888 5889 5891 5892 5892 5892 5893 5894 5896 5898 5900 5902 5903 5905 5906 5907 5908 5909 5910 5911 5913 5914 5915 5916 5917 5918 5918 5919 5920 5921 5922 5923 5924 5925 5926 5927 5928 5929 5930 5931 5932 5933 5934
5799 5802 5807 5812 5815 5816 5818 5820 5821 5822 5823 5826 5828 5828 5829 5834 5838 5839 5840 5841 5843 5845 5846 5848 5850 5852 5853 5855 5857 5859 5861 5863 5866 5869 5872 5874 5876 5878 5878 5880 5881 5883 5885 5887 5888 5890 5891 5891 5891 5892 5893 5895 5896 5898 5901 5903 5904 5905 5906 5907 5908 5909 5910 5911 5912 5913 5914 5915 5916 5917 5918 5919 5920 5921 5922 5922 5923 5924 5925 5926 5927 5928 5929 5930 5931 5932
5794 5797 5800 5804 5809 5811 5813 5816 5816 5818 5821 5823 5823 5824 5829 5834 5835 5836 5837 5838 5840 5841 5844 5846 5848 5850 5852 5854 5856 5857 5860 5861 5864 5867 5870 5872 5874 5875 5876 5878 5880 5882 5883 5885 5887 5889 5890 5891 5891 5892 5893 5894 5895 5897 5899 5901 5903 5904 5905 5906 5907 5908 5909 5910 5911 5912 5913 5914 5914 5915 5916 5917 5919 5920 5920 5921 5921 5922 5923 5924 5925 5926 5927 5929 5930 5930
5790 5792 5794 5799 5804 5806 5809 5810 5810 5814 5817 5817 5819 5823 5828 5829 5829 5830 5832 5834 5836 5838 5842 5845 5846 5848 5851 5853 5854 5856 5858 5860 5862 5865 5868 5870 5871 5872 5874 5877 5879 5880 5882 5884 5886 5887 5888 5890 5891 5891 5892 5893 5895 5896 5897 5899 5900 5902 5903 5904 5905 5907 5908 5909 5910 5911 5911 5912 5913 5914 5915 5916 5917 5918 5919 5919 5920 5920 5921 5922 5923 5924 5925 5926 5927 5928
5784 5787 5788 5794 5800 5801 5803 5803 5802 5807 5810 5811 5816 5819 5820 5821 5824 5826 5828 5831 5834 5836 5840 5842 5844 5847 5849 5851 5853 5855 5856 5858 5861 5863 5865 5867 5868 5870 5873 5875 5877 5879 5881 5882 5884 5886 5887 5889 5890 5891 5893 5894 5894 5895 5896 5897 5898 5900 5901 5902 5904 5905 5906 5907 5907 5909 5910 5911 5912 5913 5914 5915 5916 5917 5917 5918 5919 5919 5920 5920 5921 5922 5923 5923 5925 5926
5779 5782 5782 5788 5794 5795 5795 5795 5796 5801 5804 5806 5810 5811 5813 5817 5820 5822 5826 5830 5833 5835 5838 5840 5842 5844 5846 5848 5850 5852 5854 5857 5858 5860 5862 5864 5866 5868 5871 5873 5875 5877 5879 5881 5883 5884 5886 5888 5889 5891 5892 5893 5894 5895 5895 5896 5897 5898 5899 5900 5902 5903 5904 5905 5906 5908 5909 5910 5911 5912 5913 5913 5914 5915 5915 5916 5917 5917 5918 5918 5919 5920 5920 5921 5923 5924
5772 5776 5776 5781 5787 5787 5788 5790 5793 5797 5799 5802 5805 5805 5808 5813 5816 5818 5822 5826 5829 5832 5835 5837 5839 5842 5843 5845 5847 5849 5851 5853 5855 5857 5859 5861 5863 5866 5868 5871 5873 5875 5878 5880 5881 5883 5884 5886 5887 5888 5889 5890 5891 5892 5893 5894 5896 5897 5898 5899 5900 5901 5902 5903 5905 5906 5907 5908 5909 5910 5911 5911 5912 5912 5913 5914 5914 5915 5916 5916 5917 5918 5918 5919 5920 5922
5764 5770 5771 5774 5779 5783 5785 5787 5790 5792 5794 5799 5803 5804 5808 5813 5814 5816 5818 5822 5826 5830 5832 5834 5837 5840 5841 5843 5844 5846 5848 5850 5852 5854 5856 5858 5860 5863 5866 5868 5871 5874 5876 5878 5879 5881 5882 5883 5884 5885 5886 5887 5888 5890 5891 5893 5894 5895 5897 5898 5898 5899 5900 5902 5903 5904 5905 5906 5907 5908 5908 5909 5910 5910 5911 5911 5912 5913 5913 5914 5915 5915 5916 5918 5918 5919
5756 5763 5766 5768 5774 5780 5781 5781 5784 5788 5792 5797 5799 5801 5805 5809 5811 5812 5816 5821 5825 5828 5831 5833 5835 5838 5840 5841 5842 5844 5846 5847 5849 5851 5853 5855 5857 5860 5862 5865 5867 5870 5873 5875 5876 5878 5880 5881 5882 5883 5884 5885 5885 5887 5889 5890 5892 5894 5895 5896 5897 5898 5899 5900 5901 5902 5903 5904 5905 5905 5906 5907 5908 5909 5909 5910 5910 5911 5911 5912 5912 5913 5914 5915 5916 5917
5750 5756 5761 5764 5768 5773 5773 5774 5779 5783 5786 5789 5791 5794 5799 5802 5805 5808 5813 5818 5821 5824 5827 5829 5833 5837 5838 5839 5841 5842 5843 5845 5847 5849 5851 5853 5854 5857 5859 5861 5864 5866 5869 5871 5873 5875 5877 5878 5879 5880 5881 5882 5882 5884 5886 5888 5890 5891 5893 5894 5895 5896 5897 5897 5898 5899 5900 5902 5902 5903 5904 5905 5906 5907 5907 5907 5908 5908 5908 5909 5909 5910 5911 5912 5913 5914
5744 5748 5754 5757 5759 5763 5764 5767 5773 5776 5778 5781 5785 5789 5793 5797 5800 5803 5808 5813 5814 5818 5823 5826 5830 5833 5834 5836 5838 5840 5841 5843 5845 5847 5849 5851 5852 5854 5856 5858 5861 5863 5866 5868 5869 5871 5873 5875 5876 5878 5878 5879 5880 5881 5883 5885 5887 5889 5890 5892 5893 5895 5895 5895 5896 5897 5898 5899 5900 5901 5902 5904 5904 5905 5905 5905 5905 5906 5906 5906 5907 5908 5908 5909 5910 5911
5737 5740 5746 5749 5752 5757 5759 5762 5766 5769 5772 5776 5779 5784 5788 5791 5795 5799 5804 5807 5809 5814 5819 5823 5826 5829 5831 5834 5836 5837 5839 5840 5843 5845 5847 5849 5850 5852 5853 5855 5858 5860 5863 5865 5866 5868 5870 5872 5873 5875 5876 5877 5878 5879 5880 5882 5885 5886 5888 5890 5891 5892 5893 5893 5895 5896 5896 5897 5898 5899 5901 5902 5903 5903 5903 5903 5903 5904 5904 5905 5905 5906 5906 5907 5908 5908
5729 5732 5738 5743 5746 5750 5754 5756 5761 5765 5768 5771 5775 5779 5783 5786 5791 5796 5800 5802 5806 5812 5817 5819 5823 5826 5829 5831 5833 5834 5836 5837 5840 5842 5844 5846 5847 5849 5850 5852 5855 5857 5859 5861 5863 5865 5866 5868 5870 5872 5873 5875 5876 5877 5878 5879 5882 5884 5885 5887 5888 5889 5890 5891 5893 5894 5895 5895 5896 5898 5899 5900 5901 5901 5901 5901 5901 5902 5902 5903 5903 5904 5905 5905 5905 5906
5722 5726 5732 5738 5741 5744 5747 5751 5756 5761 5763 5766 5771 5775 5778 5782 5788 5792 5795 5798 5804 5809 5812 5817 5821 5823 5826 5829 5830 5832 5834 5835 5837 5840 5841 5843 5844 5846 5848 5850 5852 5854 5856 5857 5859 5860 5862 5864 5866 5868 5870 5872 5873 5874 5875 5877 5879 5880 5882 5884 5885 5885 5887 5888 5890 5892 5893 5893 5895 5896 5898 5898 5899 5899 5899 5899 5900 5900 5901 5901 5902 5903 5903 5903 5904 5904
5715 5718 5725 5731 5735 5739 5743 5747 5751 5755 5758 5762 5766 5770 5774 5779 5784 5788 5790 5795 5801 5804 5808 5814 5819 5821 5824 5827 5829 5831 5832 5833 5835 5837 5839 5841 5843 5844 5846 5847 5849 5851 5853 5854 5855 5857 5859 5861 5863 5866 5867 5869 5871 5872 5873 5875 5876 5878 5879 5880 5881 5882 5884 5885 5887 5889 5891 5891 5893 5895 5895 5896 5896 5897 5897 5898 5898 5899 5900 5900 5900 5901 5901 5902 5902 5902
5707 5711 5717 5724 5728 5732 5737 5741 5746 5750 5754 5758 5761 5765 5770 5774 5779 5782 5784 5790 5796 5798 5805 5812 5815 5817 5821 5825 5828 5829 5829 5830 5832 5834 5836 5838 5840 5841 5842 5844 5846 5847 5849 5851 5853 5854 5856 5859 5861 5863 5864 5866 5868 5870 5871 5872 5873 5875 5876 5877 5878 5879 5880 5882 5884 5886 5888 5889 5891 5892 5892 5893 5894 5894 5895 5896 5897 5897 5898 5898 5899 5899 5900 5900 5900 5900
5698 5703 5711 5719 5723 5726 5730 5735 5740 5744 5749 5752 5755 5760 5765 5768 5773 5776 5779 5786 5791 5794 5802 5809 5810 5814 5819 5822 5825 5826 5827 5828 5830 5831 5833 5835 5836 5838 5839 5841 5843 5844 5846 5848 5850 5852 5854 5856 5858 5860 5861 5863 5865 5866 5868 5869 5871 5872 5873 5874 5875 5876 5877 5878 5881 5882 5884 5886 5888 5888 5889 5890 5891 5892 5893 5894 5894 5895 5896 5896 5897 5897 5898 5898 5899 5899
5690 5696 5705 5712 5717 5720 5724 5729 5734 5738 5743 5746 5748 5754 5759 5763 5767 5771 5775 5781 5785 5789 5798 5804 5806 5811 5816 5819 5821 5824 5825 5826 5827 5829 5831 5832 5834 5835 5836 5838 5841 5842 5844 5845 5847 5849 5851 5853 5855 5857 5859 5860 5862 5863 5865 5866 5867 5869 5871 5872 5872 5873 5874 5875 5877 5879 5880 5882 5884 5885 5886 5888 5889 5890 5891 5892 5892 5893 5893 5894 5895 5895 5896 5896 5897 5897
5683 5691 5698 5704 5709 5713 5715 5721 5728 5732 5736 5739 5743 5749 5754 5758 5763 5767 5770 5776 5781 5785 5793 5799 5801 5806 5811 5815 5817 5819 5821 5824 5826 5827 5828 5829 5830 5832 5833 5836 5838 5840 5841 5842 5844 5846 5848 5850 5852 5854 5856 5857 5859 5860 5862 5863 5864 5866 5868 5869 5869 5870 5870 5872 5874 5876 5877 5879 5880 5881 5883 5884 5885 5887 5888 5889 5890 5890 5891 5891 5892 5893 5894 5894 5895 5895
5677 5684 5689 5696 5702 5705 5708 5715 5722 5726 5729 5733 5737 5742 5748 5752 5758 5761 5765 5771 5775 5779 5787 5793 5795 5800 5806 5809 5811 5814 5818 5821 5823 5824 5824 5825 5826 5828 5831 5833 5834 5836 5838 5839 5841 5843 5845 5847 5849 5851 5853 5854 5856 5858 5859 5860 5862 5864 5865 5865 5866 5867 5868 5870 5872 5873 5874 5875 5877 5879 5880 5881 5882 5884 5885 5886 5887 5887 5888 5889 5889 5890 5891 5891 5892 5893
5669 5676 5682 5688 5695 5699 5702 5709 5717 5720 5722 5725 5729 5735 5742 5748 5753 5756 5760 5766 5770 5774 5780 5785 5788 5795 5802 5804 5806 5811 5814 5816 5819 5821 5821 5822 5824 5826 5828 5830 5832 5834 5835 5837 5838 5840 5843 5845 5847 5849 5850 5852 5853 5855 5856 5858 5859 5860 5861 5862 5863 5865 5867 5868 5869 5870 5871 5873 5875 5876 5877 5878 5880 5881 5882 5883 5884 5884 5885 5886 5887 5887 5888 5889 5889 5890
5662 5668 5674 5680 5687 5692 5696 5703 5710 5714 5716 5718 5723 5731 5738 5743 5747 5751 5755 5760 5764 5766 5772 5779 5784 5791 5797 5799 5801 5806 5809 5812 5814 5817 5819 5821 5822 5823 5825 5827 5829 5831 5832 5834 5836 5838 5840 5842 5844 5846 5848 5849 5850 5852 5853 5855 5856 5857 5858 5860 5861 5863 5864 5865 5867 5868 5869 5871 5873 5875 5875 5876 5877 5878 5880 5881 5881 5882 5883 5883 5884 5885 5885 5886 5886 5887
5654 5660 5666 5673 5680 5685 5691 5697 5703 5707 5711 5714 5718 5725 5731 5735 5740 5745 5750 5753 5756 5760 5766 5773 5779 5786 5792 5794 5796 5801 5805 5807 5810 5813 5816 5818 5819 5820 5822 5824 5826 5828 5829 5831 5833 5835 5837 5839 5841 5843 5845 5846 5848 5849 5850 5852 5853 5854 5856 5857 5859 5861 5862 5863 5864 5866 5867 5869 5871 5872 5873 5874 5875 5876 5877 5878 5879 5879 5880 5881 5881 5882 5882 5883 5883 5884
5647 5653 5659 5666 5672 5678 5684 5689 5695 5701 5706 5710 5712 5717 5724 5729 5734 5741 5746 5747 5749 5755 5761 5767 5773 5780 5786 5789 5791 5796 5799 5802 5805 5809 5812 5813 5815 5816 5818 5821 5823 5824 5826 5828 5830 5832 5834 5836 5838 5839 5841 5843 5845 5846 5847 5849 5850 5852 5853 5855 5857 5858 5859 5861 5862 5863 5865 5867 5868 5869 5871 5872 5872 5873 5874 5874 5875 5876 5877 5878 5878 5879 5879 5879 5880 5880
5641 5647 5652 5658 5664 5670 5677 5684 5689 5695 5700 5702 5704 5709 5717 5724 5728 5735 5742 5742 5744 5751 5756 5760 5767 5774 5779 5784 5787 5790 5793 5796 5800 5804 5806 5808 5810 5812 5814 5817 5819 5821 5823 5825 5827 5829 5831 5832 5834 5836 5838 5840 5842 5843 5844 5846 5847 5849 5851 5853 5854 5855 5856 5859 5860 5861 5862 5863 5864 5866 5867 5868 5869 5869 5870 5871 5872 5873 5874 5874 5875 5875 5875 5876 5876 5876
5635 5639 5644 5651 5657 5663 5671 5678 5683 5687 5691 5693 5697 5702 5710 5717 5722 5729 5735 5736 5739 5745 5750 5754 5761 5767 5772 5778 5782 5784 5786 5790 5794 5798 5801 5804 5806 5807 5810 5813 5815 5817 5820 5822 5824 5826 5828 5829 5831 5832 5834 5836 5838 5840 5841 5843 5844 5846 5848 5850 5851 5852 5854 5856 5857 5858 5859 5860 5861 5863 5863 5864 5865 5866 5867 5868 5869 5869 5870 5870 5871 5871 5871 5872 5872 5872
5629 5633 5638 5645 5651 5657 5663 5670 5675 5679 5682 5686 5691 5696 5703 5711 5716 5722 5727 5729 5733 5739 5744 5748 5755 5761 5766 5772 5776 5779 5781 5784 5789 5793 5797 5799 5801 5803 5805 5808 5810 5813 5816 5818 5820 5822 5824 5826 5828 5829 5830 5832 5834 5836 5838 5839 5841 5843 5845 5846 5848 5850 5851 5852 5853 5855 5856 5857 5858 5860 5860 5861 5862 5863 5864 5864 5865 5866 5866 5867 5867 5868 5867 5867 5867 5868
5622 5627 5632 5637 5643 5650 5656 5662 5667 5672 5674 5678 5683 5690 5698 5705 5709 5714 5719 5722 5727 5733 5738 5743 5749 5755 5760 5765 5769 5773 5777 5779 5783 5787 5791 5794 5797 5799 5801 5803 5805 5808 5810 5813 5815 5818 5820 5822 5824 5825 5827 5828 5830 5832 5834 5836 5838 5839 5841 5843 5845 5846 5847 5849 5850 5852 5853 5854 5855 5856 5857 5858 5859 5860 5860 5860 5861 5862 5862 5862 5863 5863 5863 5862 5863 5864
5616 5621 5626 5631 5637 5643 5648 5653 5658 5663 5665 5670 5678 5685 5693 5698 5701 5706 5712 5717 5720 5726 5732 5737 5743 5749 5754 5759 5763 5767 5771 5774 5777 5781 5785 5789 5791 5794 5796 5798 5800 5803 5805 5808 5810 5813 5816 5818 5820 5822 5823 5825 5826 5828 5830 5832 5834 5836 5837 5839 5841 5842 5844 5845 5847 5848 5849 5851 5851 5852 5853 5854 5855 5856 5856 5856 5857 5857 5858 5857 5858 5858 5858 5857 5858 5859
5612 5615 5619 5623 5628 5633 5639 5644 5650 5655 5660 5667 5674 5680 5685 5691 5695 5701 5706 5710 5714 5720 5726 5731 5736 5742 5748 5752 5757 5761 5765 5769 5772 5775 5779 5783 5786 5788 5791 5793 5795 5798 5800 5802 5805 5807 5810 5813 5816 5818 5819 5821 5822 5824 5826 5828 5830 5832 5834 5835 5837 5838 5839 5841 5843 5844 5845 5847 5847 5848 5849 5850 5851 5851 5852 5852 5853 5853 5853 5853 5853 5853 5853 5853 5853 5853
5607 5609 5611 5615 5619 5625 5632 5638 5644 5651 5658 5662 5666 5671 5678 5685 5691 5695 5699 5703 5708 5714 5720 5725 5730 5736 5742 5747 5751 5755 5759 5763 5767 5770 5773 5776 5780 5783 5786 5788 5791 5793 5795 5797 5800 5802 5805 5808 5811 5813 5815 5816 5818 5820 5822 5824 5826 5828 5830 5831 5832 5834 5835 5837 5838 5839 5841 5842 5843 5844 5845 5846 5846 5847 5847 5848 5848 5849 5849 5848 5848 5849 5849 5849 5848 5848
5600 5602 5605 5609 5614 5619 5627 5634 5640 5647 5653 5655 5658 5665 5673 5680 5685 5688 5691 5697 5702 5707 5713 5720 5725 5730 5736 5741 5745 5750 5754 5758 5761 5765 5768 5770 5774 5777 5780 5783 5786 5788 5790 5793 5795 5797 5800 5803 5806 5809 5811 5812 5814 5815 5817 5819 5821 5823 5825 5827 5828 5830 5831 5832 5833 5835 5836 5837 5838 5839 5840 5841 5842 5842 5843 5843 5844 5844 5844 5843 5843 5844 5844 5843 5843 5843
5594 5596 5600 5605 5609 5613 5621 5628 5634 5640 5645 5648 5653 5660 5666 5672 5678 5681 5685 5690 5695 5700 5707 5714 5719 5724 5730 5735 5740 5744 5748 5752 5756 5759 5762 5764 5767 5771 5774 5777 5780 5783 5785 5788 5790 5793 5795 5798 5801 5804 5806 5808 5809 5811 5812 5814 5816 5818 5820 5822 5824 5825 5826 5828 5829 5830 5831 5832 5833 5834 5835 5836 5837 5837 5838 5838 5838 5839 5839 5838 5838 5838 5838 5838 5838 5837
5589 5591 5595 5600 5605 5608 5614 5623 5630 5635 5639 5644 5649 5654 5658 5664 5670 5675 5680 5684 5689 5695 5700 5706 5712 5718 5723 5728 5734 5738 5743 5747 5750 5753 5756 5758 5762 5765 5768 5771 5775 5778 5780 5783 5785 5788 5790 5793 5796 5798 5801 5803 5805 5806 5808 5809 5811 5813 5815 5816 5818 5820 5821 5823 5824 5826 5827 5828 5828 5829 5830 5831 5832 5832 5832 5832 5832 5833 5833 5833 5832 5832 5832 5832 5831 5831
5585 5588 5592 5596 5599 5604 5611 5620 5626 5629 5633 5638 5642 5646 5651 5657 5664 5670 5674 5678 5683 5689 5694 5700 5705 5711 5716 5721 5727 5732 5737 5741 5744 5747 5750 5752 5755 5759 5762 5765 5769 5772 5775 5778 5780 5783 5785 5788 5790 5793 5795 5798 5800 5802 5803 5804 5806 5808 5809 5811 5813 5814 5816 5818 5819 5820 5821 5822 5823 5824 5825 5826 5826 5826 5826 5826 5826 5826 5826 5826 5826 5826 5826 5826 5825 5825
5583 5586 5589 5591 5595 5601 5609 5616 5619 5621 5626 5631 5634 5638 5645 5651 5657 5663 5668 5673 5678 5684 5690 5695 5700 5705 5710 5715 5720 5725 5730 5735 5739 5741 5744 5747 5749 5753 5756 5759 5762 5765 5769 5772 5775 5778 5780 5782 5785 5787 5790 5792 5795 5797 5798 5800 5801 5802 5804 5806 5808 5809 5810 5812 5813 5814 5815 5816 5817 5818 5819 5819 5820 5820 5820 5820 5820 5820 5820 5820 5820 5820 5820 5819 5819 5818
5581 5584 5586 5588 5592 5599 5606 5610 5610 5613 5618 5624 5628 5633 5640 5645 5650 5656 5662 5668 5674 5679 5685 5690 5694 5699 5704 5709 5712 5718 5724 5729 5733 5736 5739 5741 5744 5747 5750 5753 5756 5759 5762 5765 5769 5772 5774 5777 5779 5782 5784 5786 5789 5791 5793 5794 5796 5797 5798 5800 5801 5803 5804 5805 5806 5807 5808 5809 5810 5811 5812 5812 5813 5813 5813 5813 5813 5813 5813 5814 5814 5814 5813 5812 5811 5811